Location: Campestrin
(46.4667°N, 11.7167°E)
Time: 10:07:43
(UTC+00:00)

Cosmos 968 Rocket - Pass Details

Date: 18 April 2021
Orbit: 740 x 771 km, 74.0° (Epoch: 06 May)

Event Time Altitude Azimuth Distance (km) Brightness Sun altitude
Exits shadow 23:24:12 45° 22° (NNE) 1,052 4.5 -32.3°
Drops below altitude 10° 23:27:48 10° 22° (NNE) 2,322 6.8 -32.3°
Sets 23:30:11 0° 23° (NNE) 3,251 7.7 -32.2°
